Flag for Malta Weather past 2 weeks in Valletta, Malta

Now
59 °F

Scattered clouds.


Feels Like: 54 °F
Forecast: 54 / 62 °F
Wind: 28 mph from Northwest

Location: Luqa

Current Time: Mar 27, 2015 at 4:43:53 PM

Latest Report: Mar 27, 2015 at 4:15 PM


Visibility: N/A

Pressure: 29.71 "Hg

Humidity: 72%

Dew point: 50 °F

Location of VallettaLocation

Historic Weather in Valletta — Graph

°F

Valletta temperature yesterday

Maximum temperature yesterday: 63 °F (at 3:15 PM)
Minimum temperature yesterday: 54 °F (at 10:15 PM)
Average temperature yesterday: 59 °F

Past Weeks' High & Low Weather Summary

 TemperatureHumidityPressure
High66 °F (Mar 22, 4:15 PM)100% (Mar 19, 8:15 PM)30.18 "Hg (Mar 19, 8:15 PM)
Low46 °F (Mar 13, 6:15 AM)55% (Mar 13, 12:45 PM)29.50 "Hg (Mar 24, 11:15 PM)
Average57 °F83%29.96 "Hg
* Reported Mar 12 3:15 PM — Mar 27 3:15 PM, Valletta, Weather by CustomWeather, © 2015

Note: Actual official high and low records may vary slightly from our data, if they occured in-between our weather recording intervals... More about our weather records

Advertising

Valletta weather history for previous 24 hours

 ConditionsComfort  
Time TempWeatherWind HumidityBarometerVisibility
3:15 PM
Fri, Mar 27
59 °FPartly sunny.31 mph72%29.71 "HgN/A
2:45 PM59 °FPartly sunny.30 mph77%29.71 "HgN/A
2:15 PM59 °FCloudy.29 mph77%29.71 "Hg5 mi
1:45 PM59 °FPartly sunny.28 mph82%29.71 "HgN/A
1:15 PM59 °FPartly sunny.23 mph82%29.71 "HgN/A
12:45 PM61 °FSprinkles. Scattered clouds.23 mph77%29.71 "HgN/A
12:15 PM61 °FScattered clouds.16 mph77%29.71 "HgN/A
11:45 AM61 °FPartly sunny.15 mph77%29.71 "HgN/A
11:15 AM61 °FScattered clouds.16 mph77%29.71 "HgN/A
10:45 AM59 °FBroken clouds.13 mph88%29.71 "HgN/A
10:15 AM59 °FPartly sunny.10 mph82%29.71 "HgN/A
9:45 AM61 °FScattered clouds.10 mph72%29.71 "HgN/A
9:15 AM61 °FScattered clouds.10 mph77%29.71 "HgN/A
8:45 AM57 °FScattered clouds.9 mph88%29.71 "HgN/A
8:15 AM57 °FPartly sunny.5 mph94%29.68 "HgN/A
7:45 AM57 °FScattered clouds.6 mph94%29.68 "HgN/A
7:15 AM55 °FScattered clouds.6 mph94%29.68 "HgN/A
6:45 AM54 °FScattered clouds.6 mph100%29.65 "HgN/A
6:15 AM55 °FBroken clouds.3 mph94%29.65 "HgN/A
5:45 AM54 °FSprinkles. Partly cloudy.3 mph100%29.65 "Hg4 mi
5:15 AM54 °FPassing clouds.5 mph94%29.65 "Hg6 mi
4:45 AM54 °FCool.5 mph94%29.65 "Hg5 mi
4:15 AM54 °FCool.7 mph94%29.65 "Hg5 mi
3:45 AM54 °FPassing clouds.5 mph94%29.65 "Hg5 mi
3:15 AM55 °FPassing clouds.6 mph94%29.65 "Hg5 mi
2:45 AM55 °FMostly cloudy.6 mph94%29.65 "Hg5 mi
2:15 AM54 °FPassing clouds.6 mph94%29.68 "Hg5 mi
1:45 AM54 °FThunderstorms. Passing clouds.5 mph94%29.68 "Hg4 mi
1:15 AM55 °FThunderstorms. Passing clouds.7 mph88%29.68 "Hg4 mi
12:45 AM55 °FThunderstorms. Mostly cloudy.5 mph94%29.68 "Hg5 mi
12:15 AM55 °FPassing clouds.5 mph94%29.68 "Hg5 mi
11:45 PM
Thu, Mar 26
54 °FPassing clouds.6 mph94%29.68 "Hg5 mi
11:15 PM54 °FPassing clouds.3 mph94%29.71 "Hg5 mi
10:45 PM54 °FPassing clouds.2 mph94%29.71 "Hg5 mi
10:15 PM54 °FCool.3 mph94%29.68 "Hg5 mi
9:45 PM55 °FPassing clouds.3 mph94%29.71 "Hg5 mi
9:15 PM57 °FPassing clouds.3 mph88%29.71 "Hg5 mi
8:45 PM57 °FPassing clouds.5 mph88%29.71 "Hg5 mi
8:15 PM55 °FPassing clouds.8 mph88%29.68 "Hg5 mi
7:45 PM59 °FThunderstorms. Passing clouds.8 mph88%29.71 "Hg4 mi
7:15 PM59 °FLight rain. Passing clouds.3 mph88%29.68 "Hg4 mi
6:45 PM59 °FSprinkles. Passing clouds.3 mph88%29.68 "Hg3 mi
6:15 PM59 °FPartly sunny.6 mph88%29.65 "Hg3 mi
5:45 PM59 °FPartly sunny.6 mph88%29.65 "Hg3 mi
5:15 PM61 °FPartly sunny.9 mph83%29.65 "Hg4 mi
4:45 PM61 °FPartly sunny.8 mph83%29.65 "Hg4 mi
4:15 PM61 °FSprinkles. Partly sunny.9 mph83%29.62 "Hg4 mi
Weather by CustomWeather, © 2015

See weather overviewHow to use our weather pages